OPS 4682 DEB, 51489

Orbit data source: Space-Track

OPS 4682 DEB, 51489 is space debris in LEO originally from a launch on Sat, 03 Apr 1965 UTC launched from the Air Force Western Test Range (AFWTR). Debris objects in space refer to the collection of defunct objects orbiting the Earth. Examples of debris include non-operational satellites, rocket bodies, and fragments generated from explosions, collisions, or faulty payload assembly.

Loading next visibility...
Identifier
51489, 1965-027FZ
Orbit
LEO
Country
Flag of USUS
Related business
Manufacturer
Unknown
Mission
Spacecraft
Bus & Motor
Unknown
Mass
Unknown
Launch date (UTC)
1965-04-03 (61 years ago)
Launch vehicle
Unknown
Launch site
Air Force Western Test Range (AFWTR)
Object type
Payload
Rocket body
Debris
Shape & HBR
Unknown shape, 1.1 m
Radar Cross Section
Medium (>0.1 m² and <1 m²)

Expand to show TLE details & history
Last TLE update: 23 hours ago

TLE from 23 hours ago
0 OPS 4682 DEB
1 51489U 65027FZ  26263.23473057  .00000113  00000-0  38247-3 0  9999
2 51489  90.2513   9.1643 0025195  13.1539 347.0231 12.93831048488915
Epoch: 2026-09-20T05:38Z
TLE epoch observation values (Epoch: 2026-09-20T05:38:00.721Z)
Latitude
-0.00004°
Longitude
-74.47054°
Altitude
1,270.409 km
Speed
7.229 km/s
True Right ascension
00h 36m 39s
True Declination
0° 00' 00"
Sunlit
Object was in full shadow at epoch
Visualization orbit readout
Latitude
Unknown
Longitude
Unknown
Altitude
Unknown
Speed
Unknown
Apparent Right ascension
Unknown
Apparent Declination
Unknown
Sunlit
N/A
Visualization observer readout
Local Sidereal Time
21:45:39
Azimuth
Unknown
Elevation
Unknown
Doppler factor
Unknown
Orbital elements
Apogee altitude
1,302.793 km
Perigee altitude
1,264.186 km
Semi-major axis
7,661.626 km
Eccentricity
0.00252
Inclination
90.2513°
RAAN
9.1643°
Arg. of periapsis
13.1539°
True anomaly
346.95807°
Mean anomaly
347.0231°
Eccentric anomaly
346.9906°
Mean motion
3.2364 °/min
Orbital period
111.23 mins
BSTAR
0.00038247
Loading maneuver chart data...
Computing Atmospheric mass density...
Loading historical data...
Loading historical data...
Loading historical data...
Loading historical data...
Loading historical data...
Loading historical data...
Loading historical data...

Documentation

Showing up to 5 results
|